Regional Weather Roundup
Issued by NWS

Home | Current Version | Previous Version | Graphics & Text | Print | Product List | Glossary On
Versions: 1 2 3 4 5 6 7 8 9 10 11 12 13 14 15 16 17 18 19 20 21 22 23 24 25 26 27 28 29 30 31 32 33 34 35 36 37 38 39 40 41 42 43 44 45 46 47 48 49 50
000
ASUS43 KIND 181609
RWRIN

WEATHER ROUNDUP FOR INDIANA
NATIONAL WEATHER SERVICE INDIANAPOLIS IN
1200 PM EDT THU SEP 18 2014

NOTE: "FAIR" INDICATES FEW OR NO CLOUDS BELOW 12,000 FEET WITH NO
SIGNIFICANT WEATHER AND/OR OBSTRUCTIONS TO VISIBILITY.

* - STATION DOES NOT REPORT WEATHER SUCH AS PRECIPITATION OR FOG.

+ - STATION NOT QUALITY CONTROLLED BY THE NATIONAL WEATHER SERVICE.
    USE DATA WITH CAUTION...ESPECIALLY DEWPOINT AND RELATIVE
    HUMIDITY OBSERVATIONS.

INZ001>003-010>013-019-020-181700-
NORTHWEST INDIANA

CITY           SKY/WX    TMP DP  RH WIND       PRES   REMARKS
GARY /AIRPORT/ MOSUNNY   66  48  52 NE9       30.15F
KNOX *+        SUNNY     64  48  56 E8        30.15S
LA PORTE +     SUNNY     63  46  54 E6        30.16F
MICHIGAN CITY+ SUNNY     64  45  48 E3        30.15F
MONTICELLO +   SUNNY     65  49  56 NE9       30.12S
RENSSELAER +   SUNNY     64  50  59 NE8       30.14S
VALPARAISO     SUNNY     65  46  50 E8        30.15F

$$

LMZ046-743>745-181700-
SOUTHERN LAKE MICHIGAN

STATION/POSITION TIME  TEMP WIND        PRES
                       AIR  DIR/SP/G
                 (UTC) (F)  (DEG/KT/KT) (MB)
MICHIGAN CITY    1600   63   80/  5/  7   N/A

$$

INZ004-005-014>016-021>024-181700-
NORTH CENTRAL INDIANA

CITY           SKY/WX    TMP DP  RH WIND       PRES   REMARKS
ELKHART        SUNNY     64  46  52 CALM      30.16S
GOSHEN         SUNNY     65  49  56 NE6       30.15F
LOGANSPORT +   SUNNY     63  50  63 NE6       30.14S
ROCHESTER +    SUNNY     68  46  45 NE9       30.14F
SOUTH BEND     SUNNY     65  45  48 E3        30.16S
WARSAW +       SUNNY     64  50  59 E7        30.15F

$$

INZ006>009-017-018-025>027-181700-
NORTHEAST INDIANA

CITY           SKY/WX    TMP DP  RH WIND       PRES   REMARKS
ANGOLA *+      SUNNY     66  45  45 CALM      30.15R
AUBURN +       SUNNY     64  45  48 CALM      30.16S
FORT WAYNE     SUNNY     63  50  62 E6        30.15F
HUNTINGTON +   SUNNY     65  52  63 E6        30.14F

$$

INZ028-029-035-036-043>045-051>053-181700-
WEST CENTRAL INDIANA

CITY           SKY/WX    TMP DP  RH WIND       PRES   REMARKS
GREENCASTLE +  SUNNY     64  46  52 NE5       30.11S
LAFAYETTE      SUNNY     63  50  62 NE13      30.12S
TERRE HAUTE    SUNNY     69  49  48 NE8       30.10S

$$

INZ030>032-037>040-046>048-054>057-064-065-181700-
CENTRAL INDIANA

CITY           SKY/WX    TMP DP  RH WIND       PRES   REMARKS
CP ATTERBURY + SUNNY     68  50  52 NE8       30.10F
COLUMBUS       SUNNY     68  48  49 E7        30.10S
FRANKFORT +    SUNNY     64  49  56 NE6       30.12F
INDIANAPOLIS   MOSUNNY   66  48  52 E7        30.10S
-EAGLE CREEK   SUNNY     66  45  46 NE6       30.10S
KOKOMO *+      SUNNY     63  52  67 E9        30.13S
MARION +       SUNNY     64  51  60 E7        30.13F
MT COMFORT *+  SUNNY     68  45  42 CALM      30.11S
SHELBYVILLE    SUNNY     70  48  45 VRB7      30.09F
ZIONSVILLE +   SUNNY     65  47  52 E8        30.11F

$$

INZ033-034-041-042-049-050-058-059-181700-
EAST CENTRAL INDIANA

CITY           SKY/WX    TMP DP  RH WIND       PRES   REMARKS
MUNCIE         SUNNY     67  47  48 E7        30.12F

$$

INZ060-061-067>069-081>083-085>088-181700-
SOUTHWEST INDIANA

CITY           SKY/WX    TMP DP  RH WIND       PRES   REMARKS
EVANSVILLE     PTSUNNY   67  52  58 E8        30.07F
WASHINGTON +   SUNNY     68  52  56 E8        30.08S

$$

INZ062-063-066-070>080-084-089>092-181700-
SOUTH CENTRAL AND SOUTHEAST INDIANA

CITY           SKY/WX    TMP DP  RH WIND       PRES   REMARKS
BEDFORD +      SUNNY     68  50  52 E7        30.08
BLOOMINGTON    SUNNY     68  50  52 E5        30.09F

$$



USA.gov is the U.S. government's official web portal to all federal, state and local government web resources and services.